Location: Burland Observatory
(39.4088°N, 105.4217°W)
Time: 06:25:58
(UTC-07:00)

Courier 1B - Visible Passes

Search period start: 13 December 2019 00:00
Search period end: 23 December 2019 00:00
Orbit: 963 x 1209 km, 28.3° (Epoch: 12 December)

Date Brightness Start Highest point End Pass type
(mag) Time Alt. Az. Time Alt. Az. Time Alt. Az.
13 Dec 9.2 19:17:35 10° SSW 19:22:15 22° SSE 19:22:15 22° SSE visible
14 Dec 9.3 18:24:49 10° SSW 18:29:16 18° SSE 18:31:52 15° SE visible
14 Dec 9.6 20:16:21 10° SW 20:18:46 20° SW 20:18:46 20° SW visible
15 Dec 9.6 17:32:30 10° S 17:35:45 14° SSE 17:39:05 10° SE visible
15 Dec 8.9 19:23:03 10° SW 19:28:22 28° S 19:28:22 28° S visible
16 Dec 9.0 18:29:54 10° SW 18:35:14 25° SSE 18:37:58 19° SE visible
16 Dec 9.6 20:22:23 10° WSW 20:24:52 21° SW 20:24:52 21° SW visible
17 Dec 9.3 17:36:58 10° SSW 17:41:41 20° SSE 17:46:34 10° ESE visible
17 Dec 8.7 19:28:56 10° SW 19:34:28 32° S 19:34:28 32° S visible
18 Dec 8.8 18:35:35 10° SW 18:41:17 30° S 18:44:04 23° SE visible
18 Dec 9.6 20:28:38 10° WSW 20:30:58 20° SW 20:30:58 20° SW visible
19 Dec 9.0 17:42:22 10° SW 17:47:43 26° SSE 17:53:17 10° ESE visible
19 Dec 8.7 19:35:05 10° WSW 19:40:35 33° S 19:40:35 33° S visible
20 Dec 8.7 18:41:36 10° WSW 18:47:24 32° S 18:50:14 24° SE visible
20 Dec 9.8 20:35:07 10° WSW 20:37:07 18° SW 20:37:07 18° SW visible
21 Dec 8.9 17:48:12 10° SW 17:53:49 30° S 17:59:40 10° ESE visible
21 Dec 8.9 19:41:27 10° WSW 19:46:48 30° SSW 19:46:48 30° SSW visible
22 Dec 8.8 18:47:51 10° WSW 18:53:33 31° S 18:56:31 22° SE visible
22 Dec 9.9 20:41:55 10° WSW 20:43:25 15° SW 20:43:25 15° SW visible
